Highland-University Park's Hourly Summary for Friday, March 17, 2017
Hour Temp
(f)
RH
(%)
Solar Rad.
(MJ/m2)
Rainfall
(in)
Wind
(mph)
3/17/2017 12:00 AM 65 81 0 0 2.63
3/17/2017 1:00 AM 65 82 0 0 2.58
3/17/2017 2:00 AM 65 81 0 0 3.13
3/17/2017 3:00 AM 66 81 0 0 3.24
3/17/2017 4:00 AM 67 80 0 0 3.04
3/17/2017 5:00 AM 67 78 0 0 2.99
3/17/2017 6:00 AM 67 75 0 0 3.76
3/17/2017 7:00 AM 68 73 0 0 3.38
3/17/2017 8:00 AM 68 72 0.01 0 2.91
3/17/2017 9:00 AM 68 73 0.12 0 2.9
3/17/2017 10:00 AM 69 74 0.47 0 3.38
3/17/2017 11:00 AM 70 72 0.69 0 3.45
3/17/2017 12:00 PM 71 71 0.93 0 3.51
3/17/2017 1:00 PM 72 69 1.28 0 4.23
3/17/2017 2:00 PM 74 65 1.59 0 3.6
3/17/2017 3:00 PM 74 64 1.37 0 3.42
3/17/2017 4:00 PM 75 62 1.31 0 3.34
3/17/2017 5:00 PM 75 59 0.92 0 4.12
3/17/2017 6:00 PM 76 59 0.6 0 2.82
3/17/2017 7:00 PM 76 57 0.23 0 2.1
3/17/2017 8:00 PM 75 57 0.03 0 1.46
3/17/2017 9:00 PM 74 61 0 0 0.93
3/17/2017 10:00 PM 73 63 0 0 1.35
3/17/2017 11:00 PM 72 65 0 0 1.18
Data Summary 70 69 9.55 0.00 2.89